Weather History for Key Lake, SK

Change the Weather History Date:

Wednesday, January 22, 2014

  Actual Average Record
Temperature  
Mean Temperature -8 °F -  
Max Temperature 28 °F 7 °F 41 °F (2013)
Min Temperature -45 °F -14 °F -54 °F (2002)
Degree Days  
Heating Degree Days 74    
Moisture  
Dew Point -30 °F    
Average Humidity 68    
Maximum Humidity 95    
Minimum Humidity 54    
Precipitation  
Precipitation 0.12 in - - ()
Sea Level Pressure  
Sea Level Pressure 30.64 in    
Wind  
Wind Speed 5 mph ()    
Max Wind Speed 18 mph    
Max Gust Speed 26 mph    
Visibility 5.3 miles    
Events Snow    
Averages and records for this station are not official NWS values.
T = Trace of Precipitation, MM = Missing Value Source: Averaged Metar Reports

Daily Weather History Graph

Daily Weather History Graph

Search for Another Location

Airport:

Trip Planner

Search our weather history database for the weather conditions in past years. The results will help you decide how hot, cold, wet, or windy it might be!

Date:

Astronomy

Jan. 22, 2014 Rise Set
Actual Time 9:20 AM CST 5:08 PM CST
Civil Twilight 8:35 AM CST 5:53 PM CST
Nautical Twilight 7:47 AM CST 6:41 PM CST
Astronomical Twilight 7:02 AM CST 7:26 PM CST
Moon 12:00 AM CST (1/22) 10:59 AM CST (1/22)
Length of Visible Light 9h 17m
Length of Day
7h 47m
Waning Gibbous, 65% of the Moon is Illuminated
Jan 22
Waning Gibbous
Jan 23
Last Quarter
Jan 30
New
Feb 6
First Quarter
Feb 14
Full

Hourly Weather History & Observations

Time (CST) Temp. Windchill Dew Point Humidity Pressure Visibility Wind Dir Wind Speed Gust Speed Precip Events Conditions
12:00 AM 30 °F - 24 °F 70% 30.29 in - South 4.6 mph - -  
12:00 AM -40.0 °F - -49.0 °F 60% 30.69 in 0.5 mi WNW 2.3 mph - N/A   Haze
12:40 AM -40.0 °F - -49.0 °F 60% 30.71 in 3.0 mi Calm Calm - N/A   Haze
12:44 AM -40.0 °F -56.6 °F -49.0 °F 60% 30.71 in 6.0 mi West 4.6 mph - N/A   Haze
12:47 AM -38.2 °F -51.5 °F -47.2 °F 61% 30.71 in 5.0 mi West 3.5 mph - N/A   Haze
12:51 AM -38.2 °F -51.5 °F -45.4 °F 67% 30.71 in 2.0 mi West 3.5 mph - N/A   Haze
1:00 AM -41.8 °F -55.6 °F -50.8 °F 60% 30.72 in 1.5 mi WSW 3.5 mph - N/A   Haze
1:24 AM -40.0 °F - -47.2 °F 67% 30.72 in 3.0 mi Calm Calm - N/A   Haze
1:28 AM -38.2 °F - -47.2 °F 61% 30.71 in 6.0 mi Calm Calm - N/A   Haze
1:37 AM -40.0 °F - -49.0 °F 60% 30.71 in 5.0 mi Calm Calm - N/A   Haze
1:45 AM -40.0 °F - -49.0 °F 60% 30.71 in 2.5 mi Variable 2.3 mph - N/A   Haze
2:00 AM -41.8 °F - -50.8 °F 60% 30.72 in 2.2 mi Calm Calm - N/A   Haze
2:12 AM -41.8 °F -55.6 °F -50.8 °F 60% 30.73 in 3.0 mi SSW 3.5 mph - N/A   Haze
2:35 AM -40.0 °F -53.5 °F -49.0 °F 60% 30.73 in 2.0 mi WSW 3.5 mph - N/A   Haze
2:50 AM -41.8 °F -58.7 °F -50.8 °F 60% 30.73 in 3.0 mi SW 4.6 mph - N/A   Haze
2:55 AM -38.2 °F -54.5 °F -47.2 °F 61% 30.73 in 6.0 mi WSW 4.6 mph - N/A   Haze
3:00 AM -40.0 °F -53.5 °F -47.2 °F 67% 30.73 in 9.0 mi WSW 3.5 mph - N/A   Clear
3:20 AM -40.0 °F -56.6 °F -49.0 °F 60% 30.74 in 5.0 mi West 4.6 mph - N/A   Haze
3:28 AM -40.0 °F -56.6 °F -49.0 °F 60% 30.74 in 2.2 mi West 4.6 mph - N/A   Haze
4:00 AM -41.8 °F - -50.8 °F 60% 30.74 in 0.8 mi Variable 2.3 mph - N/A   Haze
5:00 AM -43.6 °F -60.8 °F -52.6 °F 60% 30.76 in 1.0 mi SW 4.6 mph - N/A   Haze
6:00 AM 27 °F - 25 °F 89% 30.22 in - West 2.3 mph - -  
6:00 AM -41.8 °F -55.6 °F -50.8 °F 60% 30.76 in 1.0 mi SW 3.5 mph - N/A   Haze
7:00 AM -43.6 °F -60.8 °F -54.4 °F 54% 30.78 in 1.0 mi SW 4.6 mph - N/A   Haze
8:00 AM -45.4 °F - -56.2 °F 54% 30.79 in 0.6 mi Calm Calm - N/A   Haze
9:00 AM -45.4 °F - -54.4 °F 60% 30.78 in 0.2 mi Calm Calm - N/A   Haze
10:00 AM -45.4 °F -59.7 °F -54.4 °F 60% 30.78 in 0.4 mi South 3.5 mph - N/A   Haze
11:00 AM -38.2 °F - -45.4 °F 67% 30.77 in 1.2 mi Calm Calm - N/A   Haze
11:41 AM -25.6 °F -37.1 °F -31.0 °F 76% 30.76 in 3.0 mi South 3.5 mph - N/A   Haze
11:45 AM -23.8 °F - -31.0 °F 69% 30.76 in 6.0 mi SSW 2.3 mph - N/A   Haze
12:00 PM 28 °F - 26 °F 86% 30.28 in - NNW 6.9 mph - -  
12:00 PM -22.0 °F -37.7 °F -27.4 °F 76% 30.75 in 9.0 mi SSW 5.8 mph - N/A   Clear
12:10 PM -18.4 °F -31.4 °F -23.8 °F 76% 30.74 in 5.0 mi SW 4.6 mph - N/A   Haze
12:22 PM -16.6 °F -26.8 °F -22.0 °F 76% 30.74 in 6.0 mi SW 3.5 mph - N/A   Haze
1:00 PM -14.8 °F -27.2 °F -20.2 °F 77% 30.72 in 9.0 mi SSW 4.6 mph - N/A   Clear
2:00 PM -11.2 °F -30.1 °F -18.4 °F 70% 30.70 in 9.0 mi SSW 10.4 mph 17.3 mph N/A   Clear
2:21 PM -9.4 °F -30.6 °F -18.4 °F 65% 30.70 in 9.0 mi SSW 13.8 mph 19.6 mph N/A Snow Light Snow
2:34 PM -9.4 °F -30.6 °F -16.6 °F 71% 30.69 in 9.0 mi SSW 13.8 mph 19.6 mph N/A   Clear
3:00 PM -9.4 °F -29.8 °F -16.6 °F 71% 30.68 in 9.0 mi SSW 12.7 mph 18.4 mph N/A   Clear
3:46 PM -7.6 °F -26.6 °F -14.8 °F 71% 30.66 in 5.0 mi SSW 11.5 mph 20.7 mph N/A   Haze
3:48 PM -7.6 °F -26.6 °F -16.6 °F 65% 30.66 in 5.0 mi SSW 11.5 mph 20.7 mph N/A Snow Light Snow
3:55 PM -9.4 °F -27.9 °F -16.6 °F 71% 30.66 in 7.0 mi SSW 10.4 mph 17.3 mph N/A Snow Light Snow
4:00 PM -9.4 °F -24.3 °F -16.6 °F 71% 30.66 in 9.0 mi SSW 6.9 mph - N/A   Clear
5:00 PM -9.4 °F -27.9 °F -16.6 °F 71% 30.64 in 9.0 mi SSW 10.4 mph - N/A   Clear
6:00 PM 23 °F - 22 °F 95% 30.40 in - NNW 4.6 mph - -  
6:00 PM -9.4 °F -28.9 °F -16.6 °F 71% 30.61 in 9.0 mi SSW 11.5 mph - N/A   Clear
7:00 PM -9.4 °F -28.9 °F -14.8 °F 77% 30.56 in 9.0 mi South 11.5 mph - N/A   Clear
8:00 PM -7.6 °F -26.6 °F -14.8 °F 71% 30.53 in 9.0 mi SSW 11.5 mph 19.6 mph N/A   Clear
9:00 PM -7.6 °F -27.5 °F -14.8 °F 71% 30.48 in 9.0 mi SSW 12.7 mph 21.9 mph N/A   Clear
9:28 PM -7.6 °F -31.1 °F -13.0 °F 77% 30.43 in 9.0 mi SSW 18.4 mph 26.5 mph N/A Snow Light Snow
9:43 PM -7.6 °F -28.3 °F -13.0 °F 77% 30.43 in 9.0 mi SW 13.8 mph 20.7 mph N/A   Clear
10:00 PM -7.6 °F -30.5 °F -13.0 °F 77% 30.42 in 9.0 mi SW 17.3 mph 24.2 mph N/A   Scattered Clouds
10:02 PM -7.6 °F -30.5 °F -13.0 °F 77% 30.42 in 9.0 mi SW 17.3 mph 23.0 mph N/A Snow Light Snow
10:28 PM -5.8 °F -25.2 °F -13.0 °F 71% 30.40 in 9.0 mi SSW 12.7 mph 21.9 mph N/A   Mostly Cloudy
11:00 PM -5.8 °F -26.8 °F -11.2 °F 77% 30.35 in 9.0 mi SSW 15.0 mph 21.9 mph N/A   Overcast